Regional Weather Roundup
Issued by NWS Charleston, WV

Home | Current Version | Previous Version | Text Only | Print | Product List | Glossary Off
Versions: 1 2 3 4 5 6 7 8 9 10 11 12 13 14 15 16 17 18 19 20 21 22 23 24 25 26 27 28 29 30 31 32 33 34 35 36 37 38 39 40 41 42 43 44 45 46 47 48 49 50

230
ASUS41 KRLX 050110
RWRRLX
West Virginia Regional Weather Roundup
National Weather Service Charleston WV
900 PM EDT WED MAY 04 2016

Note: "fair" indicates few or no clouds below 12,000 feet with no
significant weather and/or obstructions to visibility.

WVZ003-050200-
Northern Panhandle of West Virginia

CITY           SKY/WX    TMP DP  RH WIND       PRES   REMARKS
WHEELING       LGT RAIN  50  45  83 NW3       29.68R
$$

WVZ009-050200-
Northwest West Virginia

CITY           SKY/WX    TMP DP  RH WIND       PRES   REMARKS
PARKERSBURG    LGT RAIN  51  50  96 S3        29.71R
$$

WVZ006-050200-
Western West Virginia

CITY           SKY/WX    TMP DP  RH WIND       PRES   REMARKS
HUNTINGTON     CLOUDY    52  49  89 CALM      29.69R
$$

WVZ015-050200-
West Central West Virginia

CITY           SKY/WX    TMP DP  RH WIND       PRES   REMARKS
CHARLESTON     LGT RAIN  51  48  89 SW3       29.69S
$$

WVZ022-031-050200-
North Central West Virginia

CITY           SKY/WX    TMP DP  RH WIND       PRES   REMARKS
CLARKSBURG     CLOUDY    50  47  89 W5        29.69R
MORGANTOWN     CLOUDY    54  46  74 W3        29.69R
$$

WVZ025-035-042-045-050200-
Southern West Virginia

CITY           SKY/WX    TMP DP  RH WIND       PRES   REMARKS
BECKLEY        CLOUDY    49  44  83 NW8       29.70R
LOGAN          NOT AVBL
BLUEFIELD      CLOUDY    50  40  68 NW9G21    29.70R
LEWISBURG      CLOUDY    50  40  69 CALM      29.67S
$$

WVZ047-050200-
Northern Mountains of West Virginia

CITY           SKY/WX    TMP DP  RH WIND       PRES   REMARKS
ELKINS         CLOUDY    48  44  86 W3        29.68S
$$

WVZ052-050200-
Eastern Panhandle of West Virginia

CITY           SKY/WX    TMP DP  RH WIND       PRES   REMARKS
MARTINSBURG    CLOUDY    55  54  96 NE5       29.67R
PETERSBURG     CLOUDY    58  52  81 CALM      29.66R
$$




USA.gov is the U.S. government's official web portal to all federal, state and local government web resources and services.